COSMOS 2492 (754)

Last updated on Wed Jul 09 2025 00:03:15 GMT+0000 (Coordinated Universal Time)

1 39620U 14012A 25188.90166443 -.00000071 00000+0 00000+0 0 9992 2 39620 65.4944 325.6185 0010590 321.3066 38.6130 2.13103315 87904
UTC large
Height (km)
Speed (km/s)
/
Latitude / Longitude
Inclination (degrees)
Orbital Period (minutes)
Azimuth
Elevation
Range (km)
Doppler Factor

Next 0 passes for location: London (51.5072 / 0.1276)

Sorry there are no passes over London.